Simultaneous Nadir Overpasses (SNOs) Predictions

Prediction of SNOs between NOAA-15 and METOP-C Satellite Orbit:

Table of predicted SNOs for the next 14.0 days since TLE Epoch: 5/21/2021
Index Date (NOAA-15) Time (NOAA-15) Lat,Lon (NOAA-15) SZA (NOAA-15 ) Date (METOP-C) Time (METOP-C) Lat,Lon (METOP-C) SZA (METOP-C ) Distance(km) Time Diff (sec)
1 06/04/2021 02:05:51 -81.02, 5.42 119.50 06/04/2021 02:04:41 -81.01, 5.57 119.53 3.20 70
2 06/04/2021 02:56:18 81.01, 173.12 60.52 06/04/2021 02:55:20 81.02, 173.20 60.51 1.82 58
3 06/04/2021 03:46:52 -81.00, -19.39 119.48 06/04/2021 03:46:02 -81.02, -19.56 119.51 3.29 50
4 06/04/2021 04:37:21 81.02, 147.58 60.49 06/04/2021 04:36:42 81.01, 147.70 60.48 2.26 39
5 06/04/2021 05:27:55 -81.02, -44.93 119.51 06/04/2021 05:27:24 -81.01, -45.05 119.54 2.25 31
6 06/04/2021 06:18:23 81.02, 122.41 60.49 06/04/2021 06:18:03 81.02, 122.57 60.50 2.81 20
7 06/04/2021 07:08:57 -81.01, -70.11 119.51 06/04/2021 07:08:45 -81.02, -70.18 119.52 1.57 12
8 06/04/2021 07:59:25 81.01, 97.24 60.49 06/04/2021 07:59:25 81.02, 97.07 60.47 2.91 0
9 06/04/2021 08:50:00 -81.02, -95.65 119.54 06/04/2021 08:50:07 -81.01, -95.68 119.55 1.52 7
10 06/04/2021 09:40:27 81.01, 72.06 60.48 06/04/2021 09:40:46 81.02, 71.94 60.49 2.70 19
11 06/04/2021 10:31:02 -81.02,-120.82 119.54 06/04/2021 10:31:28 -81.02,-120.81 119.53 0.19 26
12 06/04/2021 11:21:30 81.02, 46.52 60.46 06/04/2021 11:22:08 81.02, 46.44 60.46 1.58 38
13 06/04/2021 12:12:04 -81.02,-146.00 119.54 06/04/2021 12:12:49 -81.03,-145.94 119.51 1.71 45
14 06/04/2021 13:02:32 81.02, 21.35 60.46 06/04/2021 13:03:29 81.03, 21.31 60.48 1.15 57
15 06/04/2021 13:53:07 -81.03,-171.54 119.57 06/04/2021 13:54:11 -81.02,-171.44 119.54 1.89 64



Historial Predications of SNOs between NOAA-15 and METOP-C
